User: anonymous   Login
Location: Oberwangen
(47.4286°N, 8.9679°E)
Time: 11:47:17
(UTC+00:00)
Language:

Cosmos 1900 - Orbit

View from above orbital plane
View from above orbital plane
View from above satellite
View from above satellite

Ground track
Ground track

The orbit data is extracted from the following two-line orbital elements,

1 18665U 87101A   21261.08673022 -.00000077  00000-0  58610-5 0  9993
2 18665  66.0846 184.3250 0026379  87.0819 273.3305 14.54511645796361
Epoch (UTC): 18 September 2021 02:04:53
Eccentricity: 0.0026379
inclination: 66.0846°
perigee height: 692 km
apogee height: 729 km
right ascension of ascending node: 184.3250°
argument of perigee: 87.0819°
revolutions per day: 14.54511645
mean anomaly at epoch: 273.3305°
orbit number at epoch: 79636

The dashed part of the orbit path shows where the satellite is in the earth's shadow,  

DLR